SPJLSPZO

Guest
Details From SPJL - JULIACA
To SPZO - TENIENTE ALEJANDRO VELASCO ASTETE INTL
Flight Number -
Tags generated
Created
Modified
Stats Distance 156 nm / 289 km
Max Altitude 18,200 ft / 5,547 m
Waypoints 3
Social Downloads 1
Likes 0
Share VATSIM

Download

Looking for another format? Having issues loading an existing format? Contact us
Advertisement - Login to hide

Notes

Basic altitude profile: - Ascent Rate: 2500ft/min - Ascent Speed: 250kts - Cruise Altitude: 35000ft - Cruise Speed: 420kts - Descent Rate: 1500ft/min - Descent Speed: 250kts Options: - Use NATs: yes - Use PACOTS: yes - Use low airways: yes - Use high airways: yes

Route

SPJL ILMOX SPZO

ID Type Via Altitude Latitude Longitude Leg Dist Tot Dist Heading (true) Name
O SPJL APT - 0 ft / 0 m -15.46710˚ -70.15817˚ - 0 nm - JULIACA
ILMOX FIX - 18,200 ft / 5,547 m -14.59444˚ -70.84444˚ 65 nm 65 nm 323° / 323° -
O SPZO APT - 0 ft / 0 m -13.53572˚ -71.93878˚ 90 nm 155 nm 315° / 315° TENIENTE ALEJANDRO VELASCO ASTETE INTL

Altitude Profile

Advertisement - Login to hide

SPJL

Details ICAO SPJL (JUL)
Name JULIACA
Region Peru
Timezone America/Lima (UTC-5.0)
Stats Elevation 12,552 ft / 3,826 m (AMSL)
Location -15.467104° -70.158169°
Runways 1
Magnetic Variation 6.606° W

METAR

SPJL 220300Z VRB02KT CAVOK 04/M01 Q1035 RMK PP000

Decode

TAF

TAF TAF SPJL 212300Z 2200/2224 29003KT CAVOK TX17/2218Z TNM01/2210Z FM220500 00000KT CAVOK

Decode

Departure Runways

ID Width Length Bearing (true) Bearing (mag) Surface Threshold Offset Overrun Length
12 150 ft / 46 m 13,782 ft / 4,201 m 112.07° 118.68° Asphalt 0 ft / 0 m 200 ft / 61 m
30 150 ft / 46 m 13,782 ft / 4,201 m 292.06° 298.67° Asphalt 0 ft / 0 m 200 ft / 61 m

SPZO

Details ICAO SPZO (CUZ)
Name TENIENTE ALEJANDRO VELASCO ASTETE INTL
Region Peru
Timezone America/Lima (UTC-5.0)
Stats Elevation 10,860 ft / 3,310 m (AMSL)
Location -13.535722° -71.938780°
Runways 1
Magnetic Variation 5.634° W

METAR

SPZO 220300Z 00000KT 9999 NSC 07/02 Q1031 RMK BIRD HAZARD RWY 28 PP000

Decode

TAF

TAF SPZO 212300Z 2200/2224 VRB03KT 9999 SCT043 FEW046TCU BKN080 TX21/2219Z TN04/2211Z BECMG 2200/2202 FEW050 SCT100 TEMPO 2218/2222 36012KT SCT043 FEW050TCU BKN100 BECMG 2222/2224 NSC

Decode

Destination Runways

ID Width Length Bearing (true) Bearing (mag) Surface Threshold Offset Overrun Length
10 148 ft / 45 m 11,135 ft / 3,394 m 95.97° 101.60° Asphalt 0 ft / 0 m 215 ft / 66 m
28 148 ft / 45 m 11,135 ft / 3,394 m 275.96° 281.59° Asphalt 0 ft / 0 m 200 ft / 61 m